FW7134 Weather Reports


Display with metric or nautical units.
time (UTC)temp
F
wind
direction
speed
MPH
gust
MPH
rain 1hr
in
rain 24hr
in
rain mn
in
humidity
%
barometer
mb
20260507184526 55 186 5.0 12.0 0.17 0.76 0.76 100 1001.8
20260507183018 55 183 7.0 10.0 0.21 0.72 0.72 100 1002.6
20260507181515 56 183 5.0 10.0 0.28 0.68 0.68 100 1002.5
20260507180018 56 178 6.0 10.0 0.37 0.66 0.66 100 1002.9
20260507174514 56 182 6.0 11.0 0.42 0.59 0.59 100 1002.9
20260507173033 56 196 9.0 13.0 0.48 0.50 0.50 100 1003.2
20260507171511 56 205 11.0 18.0 0.37 0.38 0.38 100 1003.8
20260507170018 56 210 10.0 21.0 0.28 0.28 0.28 100 1003.4
20260507164520 57 202 13.0 22.0 0.16 0.16 0.16 100 1003.6
20260507163009 57 216 14.0 24.0 0.02 0.02 0.02 100 1003.3
20260507161508 57 192 14.0 27.0 0.01 0.01 0.01 100 1003.1
20260507160006 58 184 15.0 26.0 0.00 0.00 0.00 100 1003.3
20260507154505 59 159 13.0 29.0 0.00 0.00 0.00 100 1003.8
20260507153003 59 149 13.0 31.0 0.00 0.00 0.00 100 1004.2
20260507151601 59 174 10.0 25.0 0.00 0.00 0.00 100 1004.6
20260507150101 59 193 10.0 28.0 0.00 0.00 0.00 100 1004.5
20260507150001 59 190 11.0 28.0 0.00 0.00 0.00 100 1004.6
20260507144601 58 180 12.0 24.0 0.00 0.00 0.00 100 1005.1
20260507143114 57 165 15.0 27.0 0.00 0.00 0.00 100 1005.7
20260507141601 57 167 12.0 23.0 0.00 0.00 0.00 100 1005.8
20260507140054 59 172 17.0 34.0 0.00 0.00 0.00 100 1005.6
20260507134553 59 200 19.0 44.0 0.00 0.00 0.00 100 1005.9
20260507133053 60 161 14.0 35.0 0.00 0.00 0.00 100 1006.2
20260507131555 60 146 11.0 29.0 0.00 0.00 0.00 100 1006.2
20260507130053 59 180 17.0 27.0 0.00 0.00 0.00 100 1006.3
20260507124556 59 171 15.0 27.0 0.00 0.00 0.00 100 1006.5
20260507123044 59 163 12.0 34.0 0.00 0.00 0.00 100 1006.7
20260507121543 59 225 16.0 33.0 0.00 0.00 0.00 100 1006.7
20260507120040 59 178 20.0 34.0 0.00 0.00 0.00 100 1006.6
20260507114555 59 202 15.0 28.0 0.00 0.00 0.00 100 1006.5
20260507113058 59 190 16.0 30.0 0.00 0.00 0.00 100 1006.4
20260507111537 57 178 16.0 30.0 0.00 0.00 0.00 100 1006.6
20260507110027 57 186 16.0 27.0 0.00 0.00 0.00 100 1007.0
20260507104529 56 163 13.0 25.0 0.00 0.00 0.00 100 1006.9
20260507103022 56 182 11.0 28.0 0.00 0.00 0.00 100 1007.2
20260507101519 56 188 14.0 23.0 0.00 0.00 0.00 100 1007.3
20260507100014 55 192 16.0 28.0 0.00 0.00 0.00 100 1007.5
20260507094511 55 178 11.0 21.0 0.00 0.00 0.00 100 1007.8
20260507093009 55 182 8.0 25.0 0.00 0.00 0.00 100 1008.1
20260507091508 52 171 7.0 12.0 0.00 0.00 0.00 100 1008.5
20260507090007 49 162 3.0 11.0 0.00 0.00 0.00 100 1008.8
20260507084507 52 157 5.0 12.0 0.00 0.00 0.00 100 1008.5
20260507083003 54 182 8.0 18.0 0.00 0.00 0.00 100 1009.0
20260507081605 53 169 9.0 16.0 0.00 0.00 0.00 100 1009.7
20260507080059 53 175 5.0 10.0 0.00 0.00 0.00 100 1009.7
20260507074600 53 186 8.0 11.0 0.00 0.00 0.00 100 1010.0
20260507073101 52 188 6.0 10.0 0.00 0.00 0.00 100 1010.2
20260507071555 52 166 8.0 13.0 0.00 0.00 0.00 100 1010.0
20260507070057 52 173 8.0 21.0 0.00 0.00 0.00 100 1010.0
20260507064553 52 212 11.0 18.0 0.00 0.00 0.00 100 1010.9
20260507063051 53 193 11.0 18.0 0.00 0.00 0.00 100 1011.3
20260507061648 53 199 13.0 22.0 0.00 0.00 0.00 100 1011.5
20260507060045 52 192 13.0 22.0 0.00 0.00 0.00 100 1011.3
20260507054544 52 203 10.0 16.0 0.00 0.00 0.00 100 1011.4
20260507053042 51 197 9.0 14.0 0.00 0.00 0.00 100 1011.5
20260507051540 51 190 9.0 13.0 0.00 0.00 0.00 100 1011.9
20260507050041 52 182 7.0 12.0 0.00 0.00 0.00 100 1012.3
20260507044536 51 175 8.0 12.0 0.00 0.00 0.00 100 1012.7
20260507043035 51 163 4.0 10.0 0.00 0.00 0.00 100 1013.1
20260507041529 50 171 4.0 7.0 0.00 0.00 0.00 100 1013.6
20260507040027 49 150 1.0 5.0 0.00 0.00 0.00 100 1013.8
20260507034531 50 143 5.0 9.0 0.00 0.00 0.00 100 1014.2
20260507033021 50 150 1.0 5.0 0.00 0.00 0.00 100 1014.6
20260507031519 49 150 0.0 0.0 0.00 0.00 0.00 100 1014.9
20260507030015 50 150 0.0 1.0 0.00 0.00 0.00 100 1015.0
20260507024515 50 150 0.0 3.0 0.00 0.00 0.00 100 1015.3
20260507023011 50 141 0.0 3.0 0.00 0.00 0.00 100 1015.3
20260507021510 50 141 1.0 3.0 0.00 0.00 0.00 100 1015.7
20260507020007 50 141 0.0 2.0 0.00 0.00 0.00 100 1015.7
20260507014506 51 141 0.0 8.0 0.00 0.00 0.00 100 1015.8
20260507013005 51 156 3.0 7.0 0.00 0.00 0.00 100 1015.8
20260507011501 52 130 3.0 10.0 0.00 0.00 0.00 100 1016.2
20260507010058 53 90 5.0 9.0 0.00 0.00 0.00 100 1016.1
20260507004555 54 116 2.0 9.0 0.00 0.00 0.00 100 1015.8
20260507003106 58 167 5.0 14.0 0.00 0.00 0.00 100 1015.8
20260507001612 59 246 7.0 14.0 0.00 0.00 0.00 100 1015.6
20260507000054 59 211 6.0 14.0 0.00 0.00 0.00 100 1015.6
20260506234554 60 195 4.0 20.0 0.00 0.00 0.00 100 1015.3
20260506233051 60 196 13.0 22.0 0.00 0.00 0.00 100 1015.2
20260506231559 61 209 13.0 18.0 0.00 0.00 0.00 100 1014.9
20260506230056 62 230 15.0 38.0 0.00 0.00 0.00 100 1014.6
20260506224550 62 192 22.0 38.0 0.00 0.00 0.00 100 1014.6
20260506223049 63 236 15.0 32.0 0.00 0.00 0.00 100 1014.5
20260506221603 63 217 17.0 27.0 0.00 0.00 0.00 100 1014.5
20260506220048 64 192 17.0 26.0 0.00 0.00 0.00 100 1014.3
20260506214551 64 212 21.0 32.0 0.00 0.00 0.00 100 1014.3
20260506213047 65 213 15.0 23.0 0.00 0.00 0.00 100 1014.5
20260506211546 66 203 15.0 29.0 0.00 0.00 0.00 89 1014.8
20260506210054 66 207 22.0 35.0 0.00 0.00 0.00 84 1014.6
20260506204547 66 192 13.0 25.0 0.00 0.00 0.00 100 1014.5
20260506203045 67 198 15.0 29.0 0.00 0.00 0.00 100 1014.4
20260506201545 66 200 22.0 34.0 0.00 0.00 0.00 94 1014.6
20260506200043 68 200 10.0 31.0 0.00 0.00 0.00 86 1014.7
20260506194542 68 225 18.0 26.0 0.00 0.00 0.00 87 1014.7
20260506193045 69 188 24.0 36.0 0.00 0.00 0.00 81 1014.7
20260506191540 70 234 19.0 33.0 0.00 0.00 0.00 87 1014.6
20260506190039 71 217 23.0 34.0 0.00 0.00 0.00 81 1014.7